Showing default

IRIDIUM 106, 41917

Orbit data source: Space-Track

IRIDIUM 106, 41917 is a payload satellite owned by Iridium (US) in LEO that was launched on Sat, 14 Jan 2017 UTC via an FALCON 9 launch vehicle from the Air Force Western Test Range (AFWTR). Payloads include a variety of satellites, spacecraft, and rockets equipped with specific instruments for various scientific and technological missions. These include communications satellites like Starlink; space stations such as the ISS; scientific satellites like the Hubble; Earth observation satellites from companies like Planet Labs, Umbra, and HawkEye 360; GPS; miniature CubeSats for education and research; and military/defense satellites.

Loading next visibility...
IRIDIUM 106 details
Identifier
41917, 2017-003A
Orbit
LEO
Last TLE update11 hours ago
Origin
Flag of USIridium (US)
ManufacturerOATK SSG Gilbert
MissionOperational Commercial Communications
Bus & MotorELITEBUS, Unknown motor
Mass860 kg wet, 700 kg dry
Launch date (UTC)
2017-01-14 (8 years ago)
Launch vehicle
FALCON 9
Launch site
Air Force Western Test Range (AFWTR)
Object type
Payload
Rocket body
Debris
Shape & HBRTrap Box + 2 Pan, 9.4 m
Radar Cross Section14.423 m², Large (>1 m²)

Expand to show TLE details & history

TLE from 11 hours ago
0 IRIDIUM 106
1 41917U 17003A   24339.97057919  .00000203  00000-0  65601-4 0  9998
2 41917  86.3951 322.2211 0001962  83.1432 276.9987 14.34217164413052
Epoch: 2024-12-04T23:17Z
Definitive object data (Epoch: 2024-12-04T23:17:38.042Z)
Latitude0.00001°
Longitude-101.4455°
Altitude780.549 km
Speed7.464 km/s
True Right ascension21h 28m 53s
True Declination0° 00' 00"
Sunlit
Object was in daylight at TLE epoch
Visualization TLE readout
Latitude-24.16731°
Longitude79.97431°
Altitude787.57 km
Speed7.458 km/s
Apparent Right ascension12h 16m 54s
Apparent Declination-70° 01' 13"
Sunlit
Object is in daylight
Visualization observer readout
Local Sidereal Time08:15:40
Azimuth160.31° S
Elevation-28.244°
Doppler factor1
Orbital elements
Apogee altitude776.037 km
Perigee altitude773.23 km
Semi-major axis7,152.771 km
Eccentricity0.0001962
Inclination86.3951°
RAAN322.2211°
Arg. of periapsis83.1432°
True anomaly276.97638°
Mean anomaly276.9987°
Eccentric anomaly276.98754°
Mean motion3.58783 °/min
BSTAR0.000065601
Orbital period100.34 mins
Loading maneuver chart data...
Loading historical data...
Loading historical data...
Loading historical data...
Loading historical data...
Loading historical data...
Loading historical data...
Loading historical data...

IRIDIUM 106 Visibility forecast

Observer location: undefined°, undefined

Span
Click to sort rows by Start time (UTC) header in descending order
Start Az.
Max El. time (UTC)
Max El. Az.
Max El.
End time (UTC)
End Az.
9 mins2024-12-05 11:35:18.834Z346.903° N2024-12-05 11:40:18.834Z253.9° W38.641°2024-12-05 11:44:18.834Z197.582° SSW
7 mins2024-12-05 22:52:18.834Z137.452° SSE2024-12-05 22:55:18.834Z86.121° E29.243°2024-12-05 22:59:18.834Z25.201° NE
7 mins2024-12-06 00:33:18.834Z237.928° WSW2024-12-06 00:36:18.834Z284.943° WNW23.3°2024-12-06 00:40:18.834Z336.387° NNW
|